Wind_Speed
3 3 2 2 1 2 2 2 2 2 2 2 2 2 2 2 2 1 2 1 2 2 2 2 3 3 3 4 4 4 4 5 4 3 4 4 4 4 4 5 4 4 5
2 2 2 2 2 2 1 1 2 2 2 2 2 2 1 2 2 2 2 2 1 1 2 3 3 3 3 3 3 4 4 4 4 4 4 5 4 5 5 5 5 5 5
3 2 2 2 2 2 2 2 2 3 2 2 2 2 2 2 2 2 2 1 2 2 2 2 2 3 3 4 4 4 4 4 5 5 5 4 5 4 4 4 5 5 6
2 2 2 2 3 3 2 2 2 2 2 2 2 2 2 2 2 2 1 0 1 2 2 2 2 3 3 3 3 4 4 4 5 6 6 5 5 5 5 5 5 6 6
2 2 2 3 3 3 2 2 3 3 2 2 2 3 2 2 3 3 2 2 1 1 2 2 2 3 3 4 4 4 4 5 6 6 6 6 6 6 6 6 6 7 7
3 2 2 2 3 3 3 3 4 4 4 3 3 3 3 4 4 4 4 3 3 2 3 3 4 4 4 4 5 5 5 5 6 7 7 7 7 7 7 7 7 6 7
3 3 3 3 3 3 4 4 5 5 5 5 5 5 5 5 5 5 5 4 4 4 4 4 4 4 5 5 5 6 6 7 7 7 8 8 8 8 8 7 7 7 8
4 4 4 4 4 4 5 5 6 6 6 6 6 6 5 5 6 5 5 4 4 4 5 6 6 6 5 6 6 7 7 7 8 8 8 8 8 8 8 8 8 9 8
5 5 5 5 5 5 5 5 7 7 7 7 7 6 6 7 7 6 6 5 5 6 6 6 7 7 7 7 7 7 8 8 8 9 9 9 9 8 9 9 9 9 9
6 5 5 6 6 6 6 6 6 8 8 9 9 8 8 8 7 7 7 7 7 7 8 8 8 8 8 8 8 8 8 9 9 9 9 9 9 9 9 8 9 9 9
7 6 6 7 7 7 6 7 7 8 9 9 9 9 8 8 8 8 8 8 8 9 9 9 9 9 9 9 9 9 9 9 9 9 9 9 9 9 9 8 8 9 9
7 7 7 7 8 8 8 8 8 9 9 9 10 10 10 10 9 9 9 9 9 9 9 9 9 9 10 10 10 10 10 10 10 9 9 9 9 9 9 9 9 9 9
7 8 8 8 8 8 9 9 9 9 10 10 10 11 11 11 11 11 11 11 10 10 10 11 11 11 10 11 11 10 11 10 11 10 10 10 10 10 10 10 10 10 10
8 8 8 8 8 8 9 9 9 10 10 10 11 11 12 12 12 12 12 12 11 11 12 12 12 12 12 11 11 11 11 11 10 10 10 11 11 11 11 11 10 10 10
8 8 8 8 8 9 9 9 10 10 10 10 11 11 12 12 13 13 13 13 13 13 13 13 12 12 13 12 12 11 11 12 12 12 11 11 11 12 12 12 12 11 11
9 9 9 9 9 9 10 10 10 10 10 10 11 11 11 12 12 12 13 13 13 13 13 13 13 13 12 13 13 13 13 13 12 12 12 12 12 12 13 13 13 13 12
10 10 10 10 10 10 11 11 11 11 10 11 11 12 12 12 12 13 13 12 13 13 13 13 13 13 13 14 13 13 12 13 13 13 13 13 13 13 13 14 14 14 13
10 10 11 11 11 11 11 11 12 12 12 12 12 12 12 12 13 13 12 12 13 13 13 13 13 13 13 14 14 13 13 13 13 13 14 13 14 14 14 15 15 14 14
11 11 11 12 12 12 12 12 12 12 13 13 13 13 13 14 13 13 13 13 13 13 14 13 13 14 14 14 14 14 14 14 14 14 14 14 14 15 16 16 16 16 15
12 12 12 13 13 14 14 13 13 13 14 14 14 14 14 14 14 14 13 13 13 14 14 14 14 14 14 14 14 15 15 15 15 15 14 15 15 15 16 16 16 17 17
14 14 14 14 15 14 14 14 14 14 13 13 13 14 14 14 14 14 14 13 14 14 14 14 14 14 14 15 15 15 15 15 16 16 15 15 15 16 17 17 17 17 17
16 16 16 16 16 15 15 15 15 15 14 14 14 15 15 14 14 14 14 14 14 14 14 14 15 15 15 16 16 16 16 16 16 16 16 16 16 17 17 17 18 17 17
18 18 18 18 17 17 17 16 16 16 16 15 15 15 15 15 15 15 15 15 16 16 16 16 16 16 16 16 16 17 17 17 17 16 16 17 17 18 17 17 18 18 18
19 19 20 19 19 18 18 18 18 17 17 16 16 16 16 16 16 16 17 17 17 17 18 18 18 18 18 17 17 18 18 18 19 18 18 18 18 18 18 18 19 19 19
21 21 21 21 21 20 20 20 20 19 19 18 18 18 17 18 18 17 18 18 18 18 18 18 18 18 18 19 18 18 19 19 20 19 19 19 19 18 18 19 20 20 20
22 22 22 23 23 23 22 21 21 20 20 20 20 19 20 20 20 20 20 19 19 19 19 19 19 19 19 19 19 19 19 19 20 20 19 19 19 19 19 19 20 20 21
Wind_Direction
143 148 157 159 156 138 133 146 145 143 146 148 151 148 145 143 144 144 149 156 171 169 167 165 167 180 199 206 207 215 225 230 234 232 233 236 236 233 229 227 225 231 239
170 159 159 173 175 170 164 164 178 177 170 168 169 170 165 158 163 167 167 180 184 184 196 206 206 211 218 218 215 222 228 234 236 231 233 236 233 237 236 228 226 231 238
192 181 184 187 185 186 182 180 180 182 183 181 181 184 186 185 182 185 192 208 214 201 207 214 221 237 236 228 222 230 231 232 244 241 238 238 232 236 235 233 235 239 244
206 195 190 187 183 187 194 192 193 190 195 195 198 195 201 216 219 215 240 235 175 188 196 203 218 238 237 234 234 232 233 244 256 253 248 252 239 241 244 239 239 245 250
200 197 187 180 183 189 207 213 216 223 225 221 215 206 227 243 247 243 246 237 203 216 228 236 232 237 239 240 246 247 252 258 259 255 252 250 243 244 242 244 252 258 258
212 212 198 198 206 216 228 227 228 233 237 236 228 228 242 247 249 254 249 241 232 237 242 245 239 241 241 243 247 252 257 266 263 259 257 252 245 242 246 252 253 257 263
224 225 225 225 229 238 241 241 242 250 249 247 248 251 249 247 250 257 249 237 240 240 249 250 244 248 257 258 253 255 260 266 268 262 262 257 250 252 254 252 252 258 261
240 239 235 236 239 244 250 248 248 244 246 246 253 251 254 254 256 256 253 251 253 254 257 252 252 255 262 263 263 264 268 272 270 271 270 264 258 257 252 253 256 258 262
244 247 245 242 248 250 252 251 248 249 252 255 259 256 259 260 260 258 258 260 264 265 263 261 261 261 261 263 263 265 271 276 277 274 269 265 258 253 253 256 257 259 257
242 246 248 249 254 257 253 250 250 253 256 261 263 266 266 264 263 263 267 264 265 265 266 269 268 269 265 266 266 268 271 273 275 272 267 263 259 257 257 259 255 254 256
245 248 250 254 258 259 257 257 258 261 264 266 264 264 264 264 262 262 265 266 266 267 268 270 270 269 270 272 272 271 270 272 275 271 264 259 256 254 254 257 257 258 260
254 253 255 259 262 262 263 265 267 269 272 273 271 268 266 265 263 264 265 265 265 264 266 267 268 274 275 275 277 275 271 270 272 268 261 256 255 254 255 257 261 261 263
261 259 259 261 263 264 265 267 269 270 272 275 275 272 269 268 268 268 266 266 264 265 264 265 268 271 274 274 274 271 267 267 267 264 259 257 256 257 257 258 260 263 264
259 259 261 263 263 265 267 268 269 271 274 276 276 276 273 270 269 270 269 272 268 269 269 270 270 271 272 273 273 269 266 265 263 258 256 255 256 257 257 257 260 263 267
258 258 261 264 266 267 267 269 270 271 273 275 277 278 276 274 273 273 274 274 274 275 274 271 270 271 271 270 272 269 266 264 262 261 259 255 256 255 254 255 256 264 268
258 260 262 263 268 271 271 272 273 272 273 274 276 277 276 274 273 273 275 277 277 278 276 274 271 270 271 271 270 268 266 264 262 260 260 258 256 255 255 256 258 261 267
264 262 263 265 268 271 273 274 275 276 277 277 276 275 274 273 273 274 275 277 277 278 277 275 274 271 270 271 270 267 267 265 262 259 259 258 257 256 258 259 261 263 268
267 268 268 268 270 273 274 276 278 279 280 280 278 275 272 272 274 274 274 276 277 276 275 274 273 271 270 268 267 266 266 266 265 262 259 256 256 256 258 260 262 264 268
266 268 271 274 274 275 276 276 278 279 279 280 279 277 275 272 272 273 275 276 276 276 275 274 273 270 269 267 266 264 265 266 266 264 259 257 256 258 259 262 263 264 267
267 270 272 275 278 278 279 280 280 279 279 280 280 278 276 276 272 271 274 275 275 276 276 274 271 269 267 267 266 265 265 266 265 264 262 261 259 260 262 262 262 263 266
269 272 273 276 277 276 277 279 283 281 281 278 279 277 277 276 274 272 274 276 276 276 276 275 272 272 269 268 268 267 265 266 267 265 265 263 261 260 261 261 263 264 266
270 272 274 276 275 275 274 277 281 282 281 279 279 276 273 273 273 273 275 276 277 276 276 274 273 272 272 270 269 267 267 267 268 266 264 264 264 262 260 259 262 264 267
270 272 273 276 277 277 276 277 278 279 280 278 279 279 274 272 272 274 273 273 275 276 275 274 274 273 273 272 270 267 267 267 266 266 265 265 265 264 263 262 262 265 266
270 271 272 273 274 274 274 275 276 278 278 277 276 276 275 273 275 276 275 273 274 275 274 274 274 274 273 273 272 268 266 267 267 268 268 269 268 266 265 264 265 265 265
269 269 269 271 272 271 271 272 273 274 275 275 274 274 274 274 276 277 276 275 275 276 275 274 272 273 273 273 274 271 267 267 269 268 269 271 270 267 267 266 266 267 267
269 269 269 270 270 269 269 270 272 273 274 274 273 273 274 275 275 278 276 274 275 275 274 273 275 275 273 273 273 272 270 269 268 268 268 269 269 268 268 269 268 268 268
Height
5880 5880 5879 5879 5879 5879 5879 5879 5879 5878 5878 5878 5877 5877 5877 5876 5875 5875 5875 5874 5874 5874 5874 5874 5874 5874 5874 5874 5874 5874 5874 5875 5874 5874 5874 5874 5874 5874 5874 5874 5874 5874 5873
5880 5880 5879 5879 5879 5879 5879 5879 5879 5878 5878 5878 5877 5877 5877 5876 5875 5875 5875 5875 5874 5874 5874 5874 5873 5873 5873 5873 5873 5873 5874 5873 5874 5874 5874 5873 5873 5873 5873 5873 5873 5873 5873
5880 5879 5879 5879 5879 5879 5879 5879 5878 5878 5878 5877 5877 5877 5876 5876 5876 5875 5875 5874 5874 5874 5874 5873 5873 5873 5873 5873 5873 5873 5873 5873 5873 5873 5873 5872 5872 5872 5872 5872 5872 5872 5872
5879 5879 5879 5878 5879 5879 5879 5879 5878 5878 5878 5877 5877 5876 5876 5876 5875 5875 5875 5874 5874 5874 5874 5873 5873 5873 5873 5872 5872 5872 5872 5872 5872 5872 5872 5872 5872 5872 5872 5872 5871 5871 5871
5879 5879 5878 5878 5879 5879 5879 5879 5878 5878 5877 5877 5877 5876 5876 5875 5875 5875 5875 5875 5874 5873 5873 5873 5873 5872 5872 5872 5872 5872 5872 5871 5871 5871 5871 5871 5871 5871 5871 5871 5870 5870 5870
5879 5878 5878 5878 5879 5879 5879 5878 5878 5877 5877 5877 5876 5876 5876 5875 5874 5874 5874 5874 5874 5873 5873 5872 5872 5872 5871 5871 5871 5871 5871 5870 5869 5869 5869 5869 5869 5869 5869 5869 5869 5869 5869
5878 5878 5878 5878 5878 5878 5878 5878 5877 5877 5876 5876 5875 5875 5875 5874 5874 5874 5873 5873 5873 5872 5872 5872 5871 5871 5871 5870 5870 5870 5870 5869 5869 5868 5868 5868 5868 5868 5868 5868 5868 5868 5868
5877 5877 5877 5878 5878 5878 5878 5878 5877 5876 5875 5875 5874 5874 5874 5874 5873 5873 5872 5872 5872 5872 5871 5871 5870 5870 5870 5869 5869 5869 5868 5868 5868 5867 5867 5867 5867 5867 5866 5867 5867 5867 5866
5876 5877 5877 5877 5877 5877 5877 5877 5876 5875 5875 5874 5873 5873 5873 5873 5872 5872 5872 5871 5871 5871 5870 5869 5869 5869 5868 5868 5867 5867 5867 5866 5866 5866 5865 5865 5865 5865 5865 5865 5865 5865 5865
5875 5875 5875 5875 5876 5876 5876 5875 5875 5874 5874 5873 5872 5872 5872 5871 5871 5871 5870 5870 5870 5869 5869 5868 5868 5867 5867 5866 5866 5866 5865 5865 5864 5863 5863 5863 5863 5863 5863 5863 5863 5863 5863
5874 5874 5874 5874 5874 5874 5874 5874 5873 5873 5872 5872 5871 5871 5870 5870 5869 5869 5869 5869 5868 5868 5867 5867 5866 5866 5865 5865 5864 5864 5863 5863 5862 5861 5861 5861 5861 5862 5862 5862 5862 5862 5861
5873 5873 5873 5873 5873 5873 5873 5872 5872 5871 5871 5870 5870 5869 5869 5868 5868 5867 5867 5867 5867 5866 5865 5865 5864 5864 5863 5863 5862 5862 5862 5861 5860 5860 5860 5860 5860 5860 5860 5860 5860 5860 5859
5871 5871 5871 5872 5871 5871 5871 5870 5870 5870 5869 5869 5868 5867 5867 5866 5866 5865 5865 5865 5864 5864 5863 5863 5862 5862 5861 5860 5860 5860 5859 5859 5858 5858 5858 5858 5858 5858 5858 5858 5858 5857 5857
5870 5870 5870 5870 5870 5869 5869 5869 5868 5868 5867 5867 5866 5865 5865 5864 5864 5863 5863 5862 5862 5861 5861 5861 5860 5859 5859 5858 5858 5857 5857 5856 5856 5856 5856 5856 5856 5856 5856 5856 5855 5855 5855
5869 5869 5868 5868 5868 5868 5867 5867 5866 5866 5865 5865 5864 5863 5863 5862 5861 5861 5860 5860 5859 5859 5858 5858 5858 5857 5856 5856 5855 5855 5854 5854 5854 5854 5853 5853 5853 5853 5853 5853 5853 5853 5852
5867 5867 5866 5866 5866 5865 5865 5865 5864 5863 5863 5862 5861 5861 5860 5860 5859 5859 5858 5857 5857 5856 5856 5855 5855 5854 5854 5853 5853 5852 5852 5851 5851 5851 5851 5851 5851 5851 5850 5850 5850 5850 5850
5864 5864 5864 5864 5864 5863 5863 5862 5861 5861 5860 5860 5859 5858 5858 5857 5856 5856 5855 5855 5854 5853 5853 5852 5852 5851 5851 5850 5850 5850 5849 5849 5849 5848 5848 5848 5848 5848 5848 5848 5848 5848 5847
5862 5862 5862 5861 5861 5861 5860 5859 5859 5858 5857 5857 5856 5855 5855 5854 5853 5853 5852 5852 5851 5851 5850 5850 5849 5848 5848 5847 5847 5847 5846 5846 5846 5845 5845 5845 5845 5845 5845 5845 5845 5845 5844
5860 5859 5859 5859 5858 5857 5857 5856 5856 5855 5854 5854 5853 5852 5852 5851 5851 5850 5849 5849 5848 5848 5847 5847 5846 5845 5845 5844 5844 5844 5843 5843 5842 5842 5842 5842 5842 5842 5842 5842 5842 5842 5841
5857 5856 5856 5855 5855 5854 5854 5853 5852 5852 5851 5850 5850 5849 5848 5848 5847 5847 5846 5846 5845 5844 5844 5843 5843 5842 5842 5841 5841 5840 5840 5839 5839 5839 5839 5838 5838 5838 5838 5838 5838 5838 5838
5853 5853 5852 5852 5852 5851 5850 5850 5849 5848 5847 5847 5846 5845 5844 5844 5844 5843 5842 5842 5842 5841 5840 5840 5839 5839 5838 5837 5837 5837 5837 5836 5835 5835 5835 5835 5835 5834 5834 5834 5834 5834 5834
5849 5849 5849 5848 5848 5847 5847 5846 5845 5844 5844 5843 5842 5841 5841 5840 5840 5840 5839 5839 5838 5838 5837 5836 5836 5835 5834 5834 5833 5833 5833 5833 5832 5832 5831 5831 5831 5830 5830 5830 5830 5830 5830
5845 5845 5844 5844 5843 5843 5842 5842 5841 5841 5840 5839 5838 5837 5837 5836 5836 5836 5835 5835 5834 5834 5833 5832 5832 5831 5830 5830 5829 5829 5828 5828 5828 5828 5827 5827 5827 5826 5826 5825 5825 5826 5826
5840 5840 5839 5839 5839 5838 5838 5837 5837 5836 5836 5835 5834 5834 5833 5832 5832 5831 5831 5830 5830 5829 5829 5828 5827 5826 5826 5825 5825 5824 5824 5824 5824 5823 5823 5822 5822 5822 5821 5821 5821 5821 5821
5834 5834 5834 5834 5834 5833 5833 5832 5832 5831 5831 5830 5830 5829 5828 5828 5827 5827 5826 5825 5825 5824 5823 5823 5822 5822 5821 5820 5820 5820 5819 5819 5818 5818 5818 5818 5817 5817 5817 5816 5816 5816 5816
5829 5829 5828 5828 5828 5828 5827 5827 5826 5826 5825 5825 5824 5824 5823 5823 5822 5822 5821 5820 5819 5819 5818 5818 5817 5817 5816 5815 5815 5815 5814 5814 5813 5813 5813 5812 5812 5812 5811 5811 5811 5811 5811